When you browse on this site, cookies collect data to enhance your experience and personalize the content and advertising you see.
Visit our Privacy Policy to learn more. By continuing to use the site, you agree to this use of cookies and data.
  • In Österreich
  • Länderverzeichnis
  • Für 7 Tage
  • Wassertemperatur
  • Wetterkarte
  • News
  • Widgets
  • user-avatar
    Anmelden

    Stündliche Wetter Mercaderes

    Heute, 23 November, Samstag

    Zeit Temperatur Niederschläge Wind Luftdruck Luftfeuchtigkeit
    00:00 +18°C° 0.3 mm 0 m/S 664 mmHg 95%
    01:00 +18°C° 0.3 mm 0 m/S 664 mmHg 95%
    02:00 +18°C° 0.3 mm 0 m/S 664 mmHg 95%
    03:00 +18°C° 0.3 mm 0 m/S 664 mmHg 95%
    04:00 +18°C° 0.3 mm 0 m/S 663 mmHg 95%
    05:00 +18°C° 0.3 mm 0 m/S 664 mmHg 94%
    06:00 +19°C° 0.3 mm 0 m/S 664 mmHg 94%
    07:00 +19°C° 0.3 mm 0 m/S 665 mmHg 93%
    08:00 +20°C° 0.2 mm 0 m/S 665 mmHg 90%
    09:00 +23°C° 0.2 mm 1 m/S 666 mmHg 86%
    10:00 +24°C° 0.2 mm 1 m/S 666 mmHg 83%
    11:00 +25°C° 0.5 mm 1 m/S 665 mmHg 81%
    12:00 +25°C° 0.5 mm 1 m/S 665 mmHg 80%
    13:00 +26°C° 0.5 mm 1 m/S 664 mmHg 78%
    14:00 +25°C° 0.9 mm 1 m/S 664 mmHg 81%
    15:00 +25°C° 0.9 mm 1 m/S 664 mmHg 83%
    16:00 +24°C° 0.9 mm 2 m/S 663 mmHg 85%
    17:00 +23°C° 0.7 mm 1 m/S 663 mmHg 89%
    18:00 +22°C° 0.7 mm 1 m/S 664 mmHg 92%
    19:00 +21°C° 0.7 mm 1 m/S 664 mmHg 95%
    20:00 +19°C° 0.2 mm 0 m/S 664 mmHg 95%
    21:00 +19°C° 0.2 mm 0 m/S 665 mmHg 95%
    22:00 +18°C° 0.2 mm 0 m/S 665 mmHg 95%
    23:00 +18°C° 0.2 mm 0 m/S 665 mmHg 95%

    Morgen, 24 November, Sonntag

    Zeit Temperatur Niederschläge Wind Luftdruck Luftfeuchtigkeit
    00:00 +18°C° 0.2 mm 0 m/S 664 mmHg 95%
    01:00 +18°C° 0.2 mm 0 m/S 664 mmHg 96%
    02:00 +18°C° 0.3 mm 0 m/S 664 mmHg 96%
    03:00 +18°C° 0.3 mm 0 m/S 663 mmHg 96%
    04:00 +18°C° 0.3 mm 0 m/S 663 mmHg 96%
    05:00 +18°C° 0.3 mm 0 m/S 664 mmHg 95%
    06:00 +18°C° 0.3 mm 0 m/S 664 mmHg 93%
    07:00 +19°C° 0.3 mm 0 m/S 665 mmHg 92%
    08:00 +20°C° 0.1 mm 0 m/S 665 mmHg 88%
    09:00 +22°C° 0.1 mm 0 m/S 666 mmHg 84%
    10:00 +25°C° 0.1 mm 1 m/S 666 mmHg 80%
    11:00 +26°C° 0.4 mm 1 m/S 666 mmHg 78%
    12:00 +26°C° 0.4 mm 1 m/S 665 mmHg 77%
    13:00 +27°C° 0.4 mm 1 m/S 664 mmHg 75%
    14:00 +26°C° 1.2 mm 1 m/S 664 mmHg 79%
    15:00 +25°C° 1.2 mm 1 m/S 663 mmHg 82%
    16:00 +25°C° 1.2 mm 1 m/S 663 mmHg 86%
    17:00 +23°C° 0.9 mm 1 m/S 663 mmHg 89%
    18:00 +22°C° 0.9 mm 1 m/S 663 mmHg 93%
    19:00 +21°C° 0.9 mm 1 m/S 663 mmHg 96%
    20:00 +19°C° 0.2 mm 0 m/S 664 mmHg 96%
    21:00 +19°C° 0.2 mm 0 m/S 664 mmHg 96%
    22:00 +19°C° 0.2 mm 0 m/S 665 mmHg 96%
    23:00 +18°C° 0 mm 0 m/S 664 mmHg 96%

    übermorgen, 25 November, Montag

    Zeit Temperatur Niederschläge Wind Luftdruck Luftfeuchtigkeit
    00:00 +18°C° 0 mm 0 m/S 664 mmHg 96%
    01:00 +18°C° 0 mm 0 m/S 663 mmHg 96%
    02:00 +18°C° 0 mm 0 m/S 663 mmHg 96%
    03:00 +18°C° 0 mm 0 m/S 663 mmHg 95%
    04:00 +18°C° 0 mm 0 m/S 662 mmHg 95%
    05:00 +18°C° 0 mm 0 m/S 663 mmHg 94%
    06:00 +18°C° 0 mm 0 m/S 663 mmHg 93%
    07:00 +19°C° 0 mm 0 m/S 664 mmHg 92%
    08:00 +20°C° 0 mm 0 m/S 664 mmHg 87%
    09:00 +24°C° 0 mm 1 m/S 665 mmHg 82%
    10:00 +26°C° 0 mm 1 m/S 665 mmHg 76%
    11:00 +26°C° 0.2 mm 1 m/S 664 mmHg 74%
    12:00 +27°C° 0.2 mm 1 m/S 664 mmHg 71%
    13:00 +28°C° 0.2 mm 1 m/S 663 mmHg 68%
    14:00 +27°C° 0.6 mm 1 m/S 663 mmHg 72%
    15:00 +27°C° 0.6 mm 1 m/S 662 mmHg 76%
    16:00 +26°C° 0.6 mm 1 m/S 662 mmHg 80%
    17:00 +25°C° 1 mm 1 m/S 662 mmHg 85%
    18:00 +23°C° 1 mm 1 m/S 662 mmHg 90%
    19:00 +22°C° 1 mm 1 m/S 662 mmHg 95%
    20:00 +21°C° 0.3 mm 1 m/S 663 mmHg 95%
    21:00 +21°C° 0.3 mm 1 m/S 663 mmHg 95%
    22:00 +21°C° 0.3 mm 1 m/S 664 mmHg 94%
    23:00 +19°C° 0.1 mm 0 m/S 663 mmHg 94%

    26 November, Dienstag

    Zeit Temperatur Niederschläge Wind Luftdruck Luftfeuchtigkeit
    00:00 +18°C° 0.1 mm 0 m/S 663 mmHg 94%
    01:00 +18°C° 0.1 mm 0 m/S 663 mmHg 94%
    02:00 +18°C° 0.1 mm 0 m/S 662 mmHg 94%
    03:00 +18°C° 0.1 mm 0 m/S 662 mmHg 94%
    04:00 +18°C° 0.1 mm 0 m/S 662 mmHg 94%
    05:00 +18°C° 0 mm 0 m/S 663 mmHg 93%
    06:00 +19°C° 0 mm 0 m/S 663 mmHg 92%
    07:00 +19°C° 0 mm 0 m/S 664 mmHg 91%
    08:00 +21°C° 0.1 mm 0 m/S 664 mmHg 87%
    09:00 +24°C° 0.1 mm 1 m/S 665 mmHg 83%
    10:00 +26°C° 0.1 mm 1 m/S 665 mmHg 79%
    11:00 +27°C° 0.4 mm 1 m/S 665 mmHg 75%
    12:00 +27°C° 0.4 mm 2 m/S 664 mmHg 72%
    13:00 +28°C° 0.4 mm 2 m/S 664 mmHg 68%
    14:00 +28°C° 1.7 mm 2 m/S 663 mmHg 73%
    15:00 +27°C° 1.7 mm 2 m/S 663 mmHg 77%
    16:00 +26°C° 1.7 mm 2 m/S 662 mmHg 82%
    17:00 +25°C° 1 mm 1 m/S 662 mmHg 86%
    18:00 +23°C° 1 mm 1 m/S 662 mmHg 90%
    19:00 +22°C° 1 mm 1 m/S 663 mmHg 94%
    20:00 +21°C° 0.3 mm 1 m/S 663 mmHg 94%
    21:00 +21°C° 0.3 mm 1 m/S 663 mmHg 94%
    22:00 +21°C° 0.3 mm 1 m/S 664 mmHg 94%
    23:00 +19°C° 0.1 mm 0 m/S 663 mmHg 94%

    27 November, Mittwoch

    Zeit Temperatur Niederschläge Wind Luftdruck Luftfeuchtigkeit
    00:00 +18°C° 0.1 mm 0 m/S 663 mmHg 94%
    01:00 +18°C° 0.1 mm 0 m/S 663 mmHg 94%
    02:00 +18°C° 0 mm 0 m/S 663 mmHg 94%
    03:00 +18°C° 0 mm 0 m/S 663 mmHg 94%
    04:00 +18°C° 0 mm 0 m/S 662 mmHg 94%
    05:00 +18°C° 0 mm 0 m/S 663 mmHg 93%
    06:00 +19°C° 0 mm 0 m/S 664 mmHg 92%
    07:00 +19°C° 0 mm 0 m/S 664 mmHg 90%
    08:00 +23°C° 0 mm 1 m/S 665 mmHg 84%
    09:00 +25°C° 0 mm 1 m/S 665 mmHg 78%
    10:00 +26°C° 0 mm 1 m/S 665 mmHg 72%
    11:00 +27°C° 0.1 mm 1 m/S 665 mmHg 69%
    12:00 +28°C° 0.1 mm 2 m/S 664 mmHg 65%
    13:00 +29°C° 0.1 mm 2 m/S 664 mmHg 62%
    14:00 +28°C° 0.7 mm 2 m/S 663 mmHg 68%
    15:00 +27°C° 0.7 mm 2 m/S 663 mmHg 74%
    16:00 +26°C° 0.7 mm 2 m/S 662 mmHg 80%
    17:00 +25°C° 0.8 mm 2 m/S 663 mmHg 85%
    18:00 +23°C° 0.8 mm 1 m/S 663 mmHg 90%
    19:00 +22°C° 0.8 mm 1 m/S 663 mmHg 94%
    20:00 +21°C° 0.4 mm 1 m/S 664 mmHg 94%
    21:00 +21°C° 0.4 mm 1 m/S 664 mmHg 93%
    22:00 +21°C° 0.4 mm 1 m/S 664 mmHg 93%
    23:00 +21°C° 0.2 mm 1 m/S 664 mmHg 93%

    28 November, Donnerstag

    Zeit Temperatur Niederschläge Wind Luftdruck Luftfeuchtigkeit
    00:00 +20°C° 0.2 mm 1 m/S 664 mmHg 93%
    01:00 +18°C° 0.2 mm 0 m/S 663 mmHg 93%
    02:00 +18°C° 0.1 mm 0 m/S 663 mmHg 93%
    03:00 +18°C° 0.1 mm 0 m/S 663 mmHg 93%
    04:00 +18°C° 0.1 mm 0 m/S 663 mmHg 93%
    05:00 +19°C° 0 mm 0 m/S 663 mmHg 92%
    06:00 +19°C° 0 mm 0 m/S 664 mmHg 91%
    07:00 +19°C° 0 mm 0 m/S 664 mmHg 89%
    08:00 +21°C° 0 mm 0 m/S 664 mmHg 85%
    09:00 +24°C° 0 mm 1 m/S 665 mmHg 80%
    10:00 +26°C° 0 mm 1 m/S 665 mmHg 76%
    11:00 +27°C° 0.2 mm 1 m/S 665 mmHg 74%
    12:00 +27°C° 0.2 mm 1 m/S 664 mmHg 72%
    13:00 +28°C° 0.2 mm 2 m/S 664 mmHg 69%
    14:00 +27°C° 0.7 mm 2 m/S 663 mmHg 73%
    15:00 +27°C° 0.7 mm 2 m/S 663 mmHg 76%
    16:00 +26°C° 0.7 mm 2 m/S 662 mmHg 79%
    17:00 +25°C° 1 mm 2 m/S 663 mmHg 84%
    18:00 +23°C° 1 mm 1 m/S 663 mmHg 89%
    19:00 +21°C° 1 mm 1 m/S 663 mmHg 94%
    20:00 +21°C° 0.4 mm 1 m/S 663 mmHg 94%
    21:00 +21°C° 0.4 mm 1 m/S 664 mmHg 94%
    22:00 +20°C° 0.4 mm 1 m/S 664 mmHg 93%
    23:00 +20°C° 0.1 mm 1 m/S 664 mmHg 93%
    Mehr zeigen